Location: Jaite
(41.2884°N, 81.5737°W)
Time: 04:57:46
(UTC+00:00)

Cosmos 371 Rocket - Pass Details

Date: 15 November 2025
Orbit: 674 x 690 km, 74.0° (Epoch: 04 December)

Event Time Altitude Azimuth Distance (km) Brightness Sun altitude
Rises 00:25:49 0° 198° (SSW) 3,023 6.8 -26.0°
Reaches altitude 10° 00:28:05 10° 198° (SSW) 2,115 6.0 -26.4°
Enters shadow 00:31:31 48° 198° (SSW) 891 3.9 -27.1°
